This demonstration page uses our WeatherBlox Daily Observations layout. Learn more.

Left ArrowRight Arrow

Hourly Observations for January 18, 2019

Temp ( °F °C ) Dew Point ( °F °C ) Humidity (%) Winds ( mph kmh ) Pressure ( in mb ) Visibility ( mi km ) Precip ( " mm )
12:59 am 00:59 Cloudy 40 4.4 35 1.7 83 83 Calm 30.14 1021 10 16 0.00 0.00
1:59 am 01:59 Cloudy 40 4.4 36 2.2 86 86 Calm 30.13 1020 10 16 0.00 0.00
2:59 am 02:59 Cloudy 42 5.6 35 1.7 76 76 Calm 30.11 1020 10 16 0.00 0.00
3:59 am 03:59 Mostly Cloudy 41 5 35 1.7 79 79 SSW 6 9 30.09 1019 10 16 0.00 0.00
4:59 am 04:59 Cloudy 42 5.6 36 2.2 79 79 SW 6 9 30.08 1019 10 16 0.00 0.00
5:59 am 05:59 Mostly Cloudy 41 5 36 2.2 82 82 SW 6 9 30.07 1018 10 16 0.00 0.00
6:59 am 06:59 Partly Cloudy 42 5.6 37 2.8 82 82 SW 6 9 30.09 1019 10 16 0.00 0.00
7:59 am 07:59 Partly Cloudy 43 6.1 38 3.3 82 82 WSW 6 9 30.09 1019 8 13 0.00 0.00
8:59 am 08:59 Mostly Sunny 45 7.2 39 3.9 80 80 WSW 6 9 30.10 1019 8 13 0.00 0.00
9:59 am 09:59 Mostly Sunny 46 7.8 38 3.3 73 73 NW 9 15 30.11 1020 8 13 0.00 0.00
10:59 am 10:59 Mostly Sunny 48 8.9 38 3.3 68 68 NW 9 15 30.13 1020 8 13 0.00 0.00
11:59 am 11:59 Mostly Sunny 50 10 38 3.3 63 63 NW 6 9 30.11 1020 9 14 0.00 0.00
12:59 pm 12:59 Mostly Sunny 49 9.4 38 3.3 66 66 NNE 5 7 30.09 1019 8 13 0.00 0.00
1:59 pm 13:59 Mostly Sunny 48 8.9 37 2.8 66 66 NE 8 13 30.08 1019 9 14 0.00 0.00
2:59 pm 14:59 Mostly Sunny 47 8.3 37 2.8 69 69 ENE 7 11 30.09 1019 8 13 0.00 0.00
3:59 pm 15:59 Mostly Sunny 47 8.3 37 2.8 69 69 ENE 6 9 30.10 1019 8 13 0.00 0.00
4:59 pm 16:59 Mostly Sunny 44 6.7 36 2.2 73 73 ENE 6 9 30.10 1019 7 11 0.00 0.00
5:59 pm 17:59 Partly Cloudy 43 6.1 36 2.2 76 76 NE 8 13 30.13 1020 8 13 0.00 0.00
6:59 pm 18:59 Mostly Cloudy 43 6.1 38 3.3 82 82 NE 7 11 30.15 1021 8 13 0.00 0.00
7:59 pm 19:59 Mostly Cloudy 44 6.7 38 3.3 79 79 NE 6 9 30.17 1022 9 14 0.00 0.00
8:59 pm 20:59 Cloudy 44 6.7 38 3.3 79 79 ENE 7 11 30.18 1022 9 14 0.00 0.00
9:59 pm 21:59 Cloudy 45 7.2 37 2.8 74 74 ENE 8 13 30.19 1023 10 16 0.00 0.00
10:59 pm 22:59 Cloudy 45 7.2 36 2.2 71 71 NE 7 11 30.22 1023 10 16 0.00 0.00
11:59 pm 23:59 Cloudy 44 6.7 36 2.2 73 73 NE 8 13 30.21 1023 10 16 0.00 0.00

Powered by AerisWeather